Location: Northcutt
(34.7304°N, 84.4305°W)
Time: 02:55:09
(UTC+00:00)

Transit 2A Rocket - Pass Details

Date: 10 October 2022
Orbit: 588 x 912 km, 66.7° (Epoch: 08 December)

Event Time Altitude Azimuth Distance (km) Brightness Sun altitude
Rises 10:28:41 0° 252° (WSW) 2,823 - -15.3°
Reaches altitude 10° 10:32:03 10° 281° (W) 1,913 - -14.6°
Maximum altitude 10:34:06 13° 310° (NW) 1,718 - -14.2°
Exits shadow 10:34:23 13° 314° (NW) 1,722 6.4 -14.2°
Drops below altitude 10° 10:36:10 10° 339° (NNW) 1,925 6.9 -13.8°
Sets 10:39:35 0° 7° (N) 2,858 8.1 -13.1°
